Погода в Подсолнечном

Россия / Самарская область     53°09′02″N   52°01′05″E
темп.,
°C
ветер,
м/с
пор.,
м/с
влажн.,
%
обл.,
%
осадки,
мм/ч
давл.,
гПа
погр.,
м
4 июля, пн
пн401:00+13ссз2289100 0.0 100722
04:00+14ссз389118 0.0 1006186
07:00+14с5996100 0.4 1006473
10:00+14с61091100 0.8 1007587
13:00+18с786971 0.8 10071345
16:00+18с78777 2.9 10071207
19:00+15ссв7118710 0.8 1008795
22:00+13ссв714895 0.9 1010594
5 июля, вт
вт501:00+11ссв512915 0.0 1011386
04:00+9с4119351 0.0 1012295
07:00+10ссв51184100 0.0 1013461
10:00+13св6106777 0.0 1014930
13:00+15ссв6862100 0.0 10151633
16:00+16ссв4761100 0.0 10151421
19:00+16ссв597089 0.1 1015516
22:00+12с228545 0.1 101611
6 июля, ср
ср601:00+11ссз118511 0.0 101610
04:00+12сз258351 0.0 1017105
07:00+14ссз46805 0.0 1017222
10:00+19ссз456589 0.0 1017653
13:00+22сз56554 0.0 10171607
16:00+23сз565516 0.0 10161833
19:00+21сз36723 0.0 1016227
22:00+16сз22830 0.0 101711
7 июля, чт
чт701:00+15сз22864 0.0 101711
04:00+14сз22895 0.0 101718
07:00+17сз34790 0.0 1018177
10:00+22сз44650 0.0 1018624
13:00+24сз33550 0.0 10181454
16:00+25сз33510 0.0 10181801
19:00+24зсз23680 0.0 101867
22:00+18сз11730 0.0 101811
8 июля, пт
пт801:00+17с01780 0.0 101811
04:00+16сз00805 0.0 101811
07:00+20з11715 0.0 101999
10:00+24з2260100 0.0 1019635
13:00+26з225284 0.0 10181175
16:00+26зсз22505 0.0 10171216
19:00+26ссз116219 0.0 101712
22:00+20вюв1166100 0.0 101711